timestamp,wind_dir_avg,wind_spd_avg,wind_spd_max_dir,wind_spd_gust,battery_voltage,lat,long
2021-12-16 00:04:01+00:00,324.0,9.98,309.0,13.58,12.49,47.59359,-54.27349
2021-12-16 00:14:01+00:00,324.0,8.13,321.0,9.73,12.49,47.59359,-54.27349
2021-12-16 00:24:01+00:00,331.0,8.35,325.0,10.01,12.49,47.59359,-54.27349
2021-12-16 00:34:01+00:00,337.0,7.3,329.0,9.19,12.49,47.59359,-54.27349
2021-12-16 00:44:01+00:00,350.0,7.97,330.0,10.57,12.49,47.59359,-54.27349
2021-12-16 00:54:01+00:00,336.0,7.11,341.0,8.69,12.49,47.59359,-54.27349
2021-12-16 01:04:01+00:00,335.0,6.18,329.0,8.21,12.49,47.59359,-54.27349
2021-12-16 01:14:00+00:00,326.0,5.86,311.0,8.49,12.41,47.59359,-54.27349
2021-12-16 01:24:00+00:00,331.0,8.2,332.0,9.74,12.41,47.59359,-54.27349
2021-12-16 01:34:00+00:00,328.0,9.21,325.0,10.65,12.41,47.59359,-54.27349
2021-12-16 01:44:00+00:00,329.0,8.77,324.0,10.95,12.41,47.59359,-54.27349
2021-12-16 01:54:00+00:00,333.0,9.06,324.0,11.8,12.41,47.59359,-54.27349
2021-12-16 02:04:00+00:00,327.0,8.68,323.0,9.99,12.41,47.59359,-54.27349
2021-12-16 02:14:01+00:00,331.0,8.44,337.0,10.7,12.41,47.59359,-54.27349
2021-12-16 02:24:01+00:00,331.0,7.43,327.0,9.22,12.41,47.59359,-54.27349
2021-12-16 02:34:01+00:00,341.0,8.54,340.0,10.1,12.41,47.59359,-54.27349
2021-12-16 02:44:01+00:00,325.0,8.39,322.0,9.47,12.41,47.59359,-54.27349
2021-12-16 02:54:01+00:00,342.0,9.18,347.0,11.97,12.41,47.59359,-54.27349
2021-12-16 03:04:01+00:00,335.0,7.72,346.0,9.14,12.41,47.59359,-54.27349
2021-12-16 03:14:01+00:00,326.0,9.26,335.0,11.26,12.41,47.59359,-54.27349
2021-12-16 03:24:01+00:00,339.0,8.81,353.0,10.65,12.41,47.59359,-54.27349
2021-12-16 03:34:01+00:00,329.0,9.12,324.0,10.97,12.41,47.59359,-54.27349
2021-12-16 03:44:01+00:00,341.0,7.87,334.0,8.95,12.41,47.59359,-54.27349
2021-12-16 03:54:01+00:00,330.0,9.1,332.0,11.78,12.41,47.59359,-54.27349
2021-12-16 04:04:01+00:00,332.0,8.81,342.0,10.22,12.41,47.59359,-54.27349
2021-12-16 04:14:00+00:00,332.0,8.83,327.0,10.92,12.33,47.59359,-54.27349
2021-12-16 04:24:00+00:00,321.0,10.17,321.0,11.21,12.33,47.59359,-54.27349
2021-12-16 04:34:00+00:00,319.0,11.46,323.0,13.33,12.33,47.59359,-54.27349
2021-12-16 04:44:00+00:00,319.0,11.69,321.0,13.54,12.33,47.59359,-54.27349
2021-12-16 04:54:00+00:00,318.0,11.02,324.0,13.38,12.33,47.59359,-54.27349
2021-12-16 05:04:00+00:00,317.0,11.61,320.0,14.29,12.33,47.59359,-54.27349
2021-12-16 05:14:01+00:00,313.0,8.65,309.0,10.25,12.33,47.59359,-54.27349
2021-12-16 05:24:01+00:00,312.0,7.56,299.0,10.09,12.33,47.59359,-54.27349
2021-12-16 05:34:01+00:00,313.0,8.84,311.0,10.96,12.33,47.59359,-54.27349
2021-12-16 05:44:01+00:00,312.0,9.94,308.0,11.41,12.33,47.59359,-54.27349
2021-12-16 05:54:01+00:00,315.0,8.89,311.0,11.46,12.33,47.59359,-54.27349
2021-12-16 06:04:01+00:00,312.0,5.98,325.0,8.8,12.33,47.59359,-54.27349
2021-12-16 06:14:00+00:00,307.0,8.05,312.0,9.87,12.33,47.59359,-54.27349
2021-12-16 06:24:00+00:00,321.0,6.83,309.0,8.38,12.33,47.59359,-54.27349
2021-12-16 06:34:00+00:00,313.0,6.64,304.0,8.78,12.33,47.59359,-54.27349
2021-12-16 06:44:00+00:00,313.0,7.42,302.0,9.74,12.33,47.59359,-54.27349
2021-12-16 06:54:00+00:00,313.0,6.52,304.0,8.27,12.33,47.59359,-54.27349
2021-12-16 07:04:00+00:00,320.0,4.39,321.0,5.85,12.33,47.59359,-54.27349
2021-12-16 07:14:00+00:00,305.0,6.68,293.0,9.6,12.33,47.59359,-54.27349
2021-12-16 07:24:00+00:00,314.0,7.47,300.0,10.0,12.33,47.59359,-54.27349
2021-12-16 07:34:00+00:00,325.0,10.24,334.0,12.46,12.33,47.59359,-54.27349
2021-12-16 07:44:00+00:00,337.0,10.17,325.0,13.45,12.33,47.59359,-54.27349
2021-12-16 07:54:00+00:00,319.0,10.01,310.0,12.14,12.33,47.59359,-54.27349
2021-12-16 08:04:00+00:00,327.0,8.41,320.0,9.86,12.33,47.59359,-54.27349
2021-12-16 08:14:01+00:00,315.0,7.72,308.0,9.54,12.33,47.59359,-54.27349
2021-12-16 08:24:01+00:00,319.0,8.42,312.0,10.16,12.33,47.59359,-54.27349
2021-12-16 08:34:01+00:00,321.0,7.37,326.0,8.88,12.33,47.59359,-54.27349
2021-12-16 08:44:01+00:00,310.0,6.52,302.0,9.54,12.33,47.59359,-54.27349
2021-12-16 08:54:01+00:00,320.0,5.26,326.0,6.99,12.33,47.59359,-54.27349
2021-12-16 09:04:01+00:00,313.0,7.58,315.0,9.49,12.33,47.59359,-54.27349
2021-12-16 09:14:00+00:00,315.0,6.95,312.0,8.73,12.25,47.59359,-54.27349
2021-12-16 09:24:00+00:00,323.0,8.94,323.0,11.2,12.25,47.59359,-54.27349
2021-12-16 09:34:00+00:00,320.0,8.34,314.0,10.58,12.25,47.59359,-54.27349
2021-12-16 09:44:00+00:00,327.0,9.09,325.0,11.28,12.25,47.59359,-54.27349
2021-12-16 09:54:00+00:00,332.0,8.99,322.0,10.8,12.25,47.59359,-54.27349
2021-12-16 10:04:00+00:00,306.0,7.61,312.0,9.29,12.25,47.59359,-54.27349
2021-12-16 10:14:00+00:00,338.0,8.0,332.0,10.54,12.25,47.59359,-54.27349
2021-12-16 10:24:00+00:00,340.0,9.96,345.0,12.2,12.25,47.59359,-54.27349
2021-12-16 10:34:00+00:00,332.0,10.2,333.0,12.2,12.25,47.59359,-54.27349
2021-12-16 10:44:00+00:00,321.0,9.21,316.0,11.74,12.25,47.59359,-54.27349
2021-12-16 10:54:00+00:00,312.0,11.21,306.0,14.2,12.25,47.59359,-54.27349
2021-12-16 11:04:00+00:00,323.0,9.64,314.0,11.54,12.25,47.59359,-54.27349
2021-12-16 11:14:01+00:00,329.0,10.06,332.0,11.69,12.25,47.59359,-54.27349
2021-12-16 11:24:01+00:00,329.0,10.64,325.0,12.62,12.25,47.59359,-54.27349
2021-12-16 11:34:01+00:00,324.0,12.05,326.0,15.09,12.25,47.59359,-54.27349
2021-12-16 11:44:01+00:00,332.0,8.89,342.0,11.89,12.25,47.59359,-54.27349
2021-12-16 11:54:01+00:00,322.0,10.62,320.0,12.11,12.25,47.59359,-54.27349
2021-12-16 12:04:01+00:00,314.0,8.78,317.0,9.88,12.25,47.59359,-54.27349
2021-12-16 12:14:00+00:00,340.0,7.63,336.0,13.03,12.25,47.59359,-54.27349
2021-12-16 12:24:00+00:00,324.0,12.26,322.0,14.58,12.25,47.59359,-54.27349
2021-12-16 12:34:00+00:00,348.0,10.33,353.0,11.98,12.25,47.59359,-54.27349
2021-12-16 12:44:00+00:00,352.0,9.49,354.0,12.19,12.25,47.59359,-54.27349
2021-12-16 12:54:00+00:00,327.0,9.91,316.0,13.21,12.25,47.59359,-54.27349
2021-12-16 13:04:00+00:00,334.0,9.12,311.0,12.65,12.25,47.59359,-54.27349
2021-12-16 13:14:01+00:00,331.0,9.8,318.0,13.25,13.53,47.59359,-54.27349
2021-12-16 13:24:01+00:00,348.0,8.65,351.0,10.83,13.53,47.59359,-54.27349
2021-12-16 13:34:01+00:00,326.0,10.61,319.0,12.83,13.53,47.59359,-54.27349
2021-12-16 13:44:01+00:00,352.0,11.99,350.0,13.95,13.53,47.59359,-54.27349
2021-12-16 13:54:01+00:00,346.0,12.13,343.0,13.98,13.53,47.59359,-54.27349
2021-12-16 14:04:01+00:00,345.0,10.32,345.0,12.58,13.53,47.59359,-54.27349
2021-12-16 14:14:01+00:00,329.0,10.44,318.0,13.26,13.76,47.59359,-54.27349
2021-12-16 14:24:01+00:00,331.0,8.52,338.0,10.43,13.76,47.59359,-54.27349
2021-12-16 14:34:01+00:00,343.0,9.92,345.0,11.15,13.76,47.59359,-54.27349
2021-12-16 14:44:01+00:00,351.0,10.67,355.0,12.55,13.76,47.59359,-54.27349
2021-12-16 14:54:01+00:00,326.0,9.57,319.0,11.64,13.76,47.59359,-54.27349
2021-12-16 15:04:01+00:00,328.0,9.04,320.0,11.12,13.76,47.59359,-54.27349
2021-12-16 16:14:00+00:00,328.0,9.15,325.0,10.64,14.32,47.59359,-54.27349
2021-12-16 16:24:00+00:00,317.0,7.01,314.0,8.76,14.32,47.59359,-54.27349
2021-12-16 16:34:00+00:00,299.0,6.24,302.0,7.87,14.32,47.59359,-54.27349
2021-12-16 16:44:00+00:00,330.0,8.13,325.0,9.48,14.32,47.59359,-54.27349
2021-12-16 16:54:00+00:00,299.0,7.06,301.0,9.1,14.32,47.59359,-54.27349
2021-12-16 17:04:00+00:00,323.0,7.89,315.0,9.09,14.32,47.59359,-54.27349
2021-12-16 17:14:00+00:00,301.0,6.99,303.0,8.67,13.6,47.59359,-54.27349
2021-12-16 17:24:00+00:00,308.0,5.69,306.0,8.84,13.6,47.59359,-54.27349
2021-12-16 17:34:00+00:00,303.0,4.96,299.0,6.52,13.6,47.59359,-54.27349
2021-12-16 17:44:00+00:00,319.0,6.43,323.0,8.08,13.6,47.59359,-54.27349
2021-12-16 17:54:00+00:00,316.0,6.54,303.0,8.12,13.6,47.59359,-54.27349
2021-12-16 18:04:00+00:00,313.0,7.08,318.0,9.16,13.6,47.59359,-54.27349
2021-12-16 19:14:01+00:00,293.0,6.44,298.0,7.59,13.53,47.59359,-54.27349
2021-12-16 19:24:01+00:00,292.0,5.86,292.0,6.92,13.53,47.59359,-54.27349
2021-12-16 19:34:01+00:00,313.0,4.66,306.0,5.95,13.53,47.59359,-54.27349
2021-12-16 19:44:01+00:00,294.0,5.69,296.0,7.05,13.53,47.59359,-54.27349
2021-12-16 19:54:01+00:00,299.0,5.62,300.0,7.11,13.53,47.59359,-54.27349
2021-12-16 20:04:01+00:00,305.0,4.95,297.0,6.41,13.53,47.59359,-54.27349
2021-12-16 20:14:00+00:00,289.0,4.59,283.0,7.12,12.65,47.59359,-54.27349
2021-12-16 20:24:00+00:00,287.0,5.61,278.0,7.1,12.65,47.59359,-54.27349
2021-12-16 20:34:00+00:00,296.0,4.49,290.0,6.04,12.65,47.59359,-54.27349
2021-12-16 20:44:00+00:00,309.0,5.22,308.0,6.02,12.65,47.59359,-54.27349
2021-12-16 20:54:00+00:00,292.0,5.32,289.0,7.01,12.65,47.59359,-54.27349
2021-12-16 21:04:00+00:00,289.0,4.68,284.0,7.12,12.65,47.59359,-54.27349
2021-12-16 21:14:01+00:00,278.0,5.27,282.0,6.76,12.65,47.59359,-54.27349
2021-12-16 21:24:01+00:00,271.0,4.14,271.0,5.04,12.65,47.59359,-54.27349
2021-12-16 21:34:01+00:00,270.0,4.43,271.0,6.78,12.65,47.59359,-54.27349
2021-12-16 21:44:01+00:00,299.0,4.41,291.0,6.56,12.65,47.59359,-54.27349
2021-12-16 21:54:01+00:00,273.0,4.3,270.0,6.95,12.65,47.59359,-54.27349
2021-12-16 22:04:01+00:00,260.0,4.3,263.0,6.66,12.65,47.59359,-54.27349
2021-12-16 22:14:01+00:00,286.0,6.13,289.0,7.18,12.57,47.59359,-54.27349
2021-12-16 22:24:01+00:00,285.0,3.84,280.0,6.19,12.57,47.59359,-54.27349
2021-12-16 22:34:01+00:00,294.0,5.92,296.0,7.38,12.57,47.59359,-54.27349
2021-12-16 22:44:01+00:00,298.0,5.83,296.0,6.74,12.57,47.59359,-54.27349
2021-12-16 22:54:01+00:00,288.0,6.12,289.0,7.01,12.57,47.59359,-54.27349
2021-12-16 23:04:01+00:00,332.0,3.19,303.0,5.39,12.57,47.59359,-54.27349
2021-12-16 23:14:01+00:00,294.0,3.85,290.0,5.85,12.49,47.59359,-54.27349
2021-12-16 23:24:01+00:00,338.0,2.32,293.0,4.93,12.49,47.59359,-54.27349
2021-12-16 23:34:01+00:00,299.0,4.81,296.0,6.0,12.49,47.59359,-54.27349
2021-12-16 23:44:01+00:00,309.0,3.73,296.0,5.54,12.49,47.59359,-54.27349
2021-12-16 23:54:01+00:00,296.0,3.26,285.0,5.37,12.49,47.59359,-54.27349
